Huron, SD

2:13 AM CST on February 27, 2017 (GMT -0600)
Huron Regional

Weather History for KHON - March, 2013

Change the Weather History Date:

Sunday, March 31, 2013

  Actual Average Record
Temperature  
Mean Temperature 30 °F 40 °F  
Max Temperature 38 °F 51 °F 86 °F (1963)
Min Temperature 21 °F 28 °F 2 °F (1975)
Degree Days  
Heating Degree Days 35 25  
Month to date heating degree days 1238 987  
Since 1 July heating degree days 7064 6819  
Cooling Degree Days 0 0  
Month to date cooling degree days 0 0  
Year to date cooling degree days 0 0  
Moisture  
Dew Point 26 °F    
Average Humidity 76    
Maximum Humidity 100    
Minimum Humidity 52    
Precipitation  
Precipitation 0.00 in 0.07 in 1.27 in (1998)
Month to date precipitation 0.78 1.46  
Year to date precipitation 2.16 2.56  
Snow  
Snow 0.00 in 0.20 in 12.80 in (1998)
Month to date snowfall 7.2 8.9  
Since 1 July snowfall 40.4 39.9  
Snow Depth 0.00 in    
Sea Level Pressure  
Sea Level Pressure 30.08 in    
Wind  
Wind Speed 14 mph (NNW)    
Max Wind Speed 23 mph    
Max Gust Speed 28 mph    
Visibility 8 miles    
Events Fog    
T = Trace of Precipitation, MM = Missing Value Source: NWS Daily Summary

Daily Weather History Graph

Daily Weather History Graph

Search for Another Location

Airport or City:

Trip Planner

Search our weather history database for the weather conditions in past years. The results will help you decide how hot, cold, wet, or windy it might be!

Date:

Astronomy

Mar. 31, 2013 Rise Set
Actual Time 7:15 AM CDT 7:59 PM CDT
Civil Twilight 6:46 AM CDT 8:28 PM CDT
Nautical Twilight 6:11 AM CDT 9:03 PM CDT
Astronomical Twilight 5:35 AM CDT 9:39 PM CDT
Moon 12:15 AM CDT (3/31) 9:54 AM CDT (3/31)
Length of Visible Light 13h 42m
Length of Day
12h 44m
Waning Gibbous, 77% of the Moon is Illuminated
Mar 31
Waning Gibbous
Apr 2
Last Quarter
Apr 10
New
Apr 18
First Quarter
Apr 25
Full

Hourly Weather History & Observations

Time (CDT) Temp. Windchill Dew Point Humidity Pressure Visibility Wind Dir Wind Speed Gust Speed Precip Events Conditions
12:18 AM 33.8 °F 29.6 °F 33.8 °F 100% 30.00 in 0.2 mi North 4.6 mph - N/A Fog Fog
12:31 AM 33.8 °F - 33.8 °F 100% 30.00 in 0.5 mi Calm Calm - N/A Fog Fog
12:55 AM 34.0 °F 29.8 °F 34.0 °F 100% 30.03 in 0.8 mi NW 4.6 mph - N/A   Mist
1:03 AM 33.8 °F 30.8 °F 33.8 °F 100% 30.00 in 1.0 mi NW 3.5 mph - N/A   Overcast
1:13 AM 33.8 °F 30.8 °F 33.8 °F 100% 30.00 in 0.8 mi WNW 3.5 mph - N/A   Overcast
1:45 AM 33.8 °F 28.6 °F 33.8 °F 100% 30.00 in 1.0 mi West 5.8 mph - N/A   Overcast
1:55 AM 34.0 °F 28.0 °F 34.0 °F 100% 30.02 in 2.0 mi West 6.9 mph - N/A   Overcast
2:14 AM 33.8 °F 28.6 °F 33.8 °F 100% 29.99 in 1.8 mi WSW 5.8 mph - N/A   Mostly Cloudy
2:19 AM 33.8 °F 27.7 °F 33.8 °F 100% 29.99 in 0.8 mi WSW 6.9 mph - N/A   Overcast
2:55 AM 32.0 °F 25.6 °F 32.0 °F 100% 30.01 in 0.5 mi West 6.9 mph - N/A Fog Fog
3:04 AM 32.0 °F 24.8 °F 32.0 °F 100% 29.98 in 2.0 mi West 8.1 mph - N/A   Mostly Cloudy
3:10 AM 32.0 °F 25.6 °F 32.0 °F 100% 29.99 in 4.0 mi West 6.9 mph - N/A   Scattered Clouds
3:55 AM 34.0 °F 26.0 °F 32.0 °F 92% 30.00 in 10.0 mi WNW 10.4 mph - N/A   Clear
4:55 AM 34.0 °F 25.5 °F 32.0 °F 92% 29.99 in 10.0 mi WNW 11.5 mph - N/A   Clear
5:55 AM 34.0 °F 24.6 °F 30.0 °F 85% 30.00 in 10.0 mi NW 13.8 mph - N/A   Clear
6:55 AM 32.0 °F 22.1 °F 28.0 °F 85% 30.01 in 10.0 mi NW 13.8 mph - N/A   Clear
7:55 AM 32.0 °F 20.8 °F 27.0 °F 82% 30.04 in 10.0 mi NNW 17.3 mph - N/A   Clear
8:55 AM 33.1 °F 23.0 °F 27.0 °F 78% 30.07 in 10.0 mi NNW 15.0 mph - N/A   Clear
9:55 AM 34.0 °F 23.0 °F 26.1 °F 73% 30.08 in 10.0 mi NNW 18.4 mph - N/A   Scattered Clouds
10:55 AM 35.1 °F 23.5 °F 26.1 °F 70% 30.09 in 10.0 mi North 21.9 mph - N/A   Mostly Cloudy
11:19 AM 35.6 °F 24.8 °F 26.6 °F 70% 30.05 in 10.0 mi North 19.6 mph - N/A   Overcast
11:26 AM 35.6 °F 25.5 °F 24.8 °F 65% 30.06 in 10.0 mi North 17.3 mph - N/A   Overcast
11:55 AM 35.1 °F 24.8 °F 25.0 °F 67% 30.10 in 10.0 mi North 17.3 mph - N/A   Overcast
12:25 PM 37.4 °F 27.5 °F 24.8 °F 60% 30.06 in 10.0 mi North 18.4 mph 25.3 mph N/A   Mostly Cloudy
12:55 PM 37.0 °F 26.7 °F 24.1 °F 59% 30.10 in 10.0 mi North 19.6 mph 24.2 mph N/A   Scattered Clouds
1:52 PM 37.4 °F 27.8 °F 24.8 °F 60% 30.05 in 10.0 mi North 17.3 mph 23.0 mph N/A   Mostly Cloudy
1:55 PM 37.9 °F 28.5 °F 24.1 °F 57% 30.09 in 10.0 mi North 17.3 mph 23.0 mph N/A   Mostly Cloudy
2:42 PM 35.6 °F 26.6 °F 19.4 °F 52% 30.07 in 10.0 mi North 13.8 mph 24.2 mph N/A   Overcast
2:55 PM 35.1 °F 24.8 °F 19.9 °F 54% 30.12 in 10.0 mi North 17.3 mph 25.3 mph N/A   Overcast
3:55 PM 34.0 °F 22.1 °F 21.0 °F 59% 30.12 in 10.0 mi North 21.9 mph 27.6 mph N/A   Overcast
4:55 PM 32.0 °F 21.2 °F 18.0 °F 56% 30.14 in 10.0 mi North 16.1 mph 26.5 mph N/A   Overcast
5:55 PM 30.9 °F 19.1 °F 15.1 °F 52% 30.17 in 10.0 mi North 18.4 mph 27.6 mph N/A   Overcast
6:55 PM 30.0 °F 17.9 °F 15.1 °F 54% 30.19 in 10.0 mi North 18.4 mph 23.0 mph N/A   Overcast
7:55 PM 28.0 °F 18.1 °F 17.1 °F 63% 30.21 in 10.0 mi North 11.5 mph - N/A   Clear
8:55 PM 26.1 °F 14.5 °F 17.1 °F 69% 30.24 in 10.0 mi North 13.8 mph - N/A   Clear
9:55 PM 25.0 °F 14.8 °F 17.1 °F 72% 30.27 in 10.0 mi NNE 10.4 mph - N/A   Clear
10:55 PM 24.1 °F 16.0 °F 17.1 °F 75% 30.28 in 10.0 mi North 6.9 mph - N/A   Clear
11:55 PM 21.9 °F 14.5 °F 16.0 °F 78% 30.29 in 10.0 mi North 5.8 mph - N/A   Clear